This demonstration page uses our WeatherBlox Daily Observations layout. Learn more.

36.17497, -115.13722

Hourly Observations for July 26, 2015

Temp ( °F °C ) Dew Point ( °F °C ) Humidity (%) Winds ( mph kmh ) Pressure ( in mb ) Visibility ( mi km ) Precip ( " mm )
12:53 am 00:53 Clear 82 28 30 -1 15 15 Calm 29.68 1005 10 16.09344 0 0
1:53 am 01:53 Clear 79 26 32 0 18 18 WNW 3 6 29.71 1006 10 16.09344 0 0
2:53 am 02:53 Clear 77 25 30 -1 18 18 NW 7 11 29.71 1006 10 16.09344 0 0
3:53 am 03:53 Clear 75 24 30 -1 19 19 NW 5 7 29.71 1006 10 16.09344 0 0
4:53 am 04:53 Clear 75 24 34 1 22 22 WNW 6 9 29.71 1006 10 16.09344 0 0
5:53 am 05:53 Sunny 73 23 32 0 22 22 NNW 8 13 29.77 1008 10 16.09344 0 0
6:53 am 06:53 Sunny 75 24 36 2 24 24 NNW 5 7 29.77 1008 10 16.09344 0 0
7:53 am 07:53 Sunny 81 27 39 4 23 23 NNW 5 7 29.77 1008 10 16.09344 0 0
8:53 am 08:53 Sunny 84 29 39 4 20 20 Calm 29.74 1007 10 16.09344 0 0
9:53 am 09:53 Sunny 88 31 41 5 19 19 Calm 29.74 1007 10 16.09344 0 0
10:53 am 10:53 Sunny 91 33 34 1 13 13 N 3 6 29.71 1006 10 16.09344 0 0
11:53 am 11:53 Sunny 95 35 30 -1 10 10 SE 3 6 29.71 1006 10 16.09344 0 0
12:35 pm 12:35 Sunny 100 38 27 -3 7 7 S 17 28 29.62 1003 10 16.09344 0 0
12:53 pm 12:53 Sunny 100 38 27 -3 7 7 S 21 33 29.62 1003 10 16.09344 0 0
1:53 pm 13:53 Sunny 102 39 30 -1 8 8 SSW 20 31 29.56 1001 10 16.09344 0 0
2:53 pm 14:53 Sunny 102 39 27 -3 7 7 SW 20 31 29.56 1001 10 16.09344 0 0
3:53 pm 15:53 Sunny 102 39 27 -3 7 7 WSW 20 31 29.53 1000 10 16.09344 0 0
4:53 pm 16:53 Sunny 102 39 21 -6 5 5 WSW 18 30 29.5 999 10 16.09344 0 0
5:53 pm 17:53 Sunny 100 38 25 -4 7 7 SSW 16 26 29.47 998 10 16.09344 0 0
6:53 pm 18:53 Sunny 99 37 23 -5 7 7 SSW 13 20 29.5 999 10 16.09344 0 0
7:53 pm 19:53 Clear 97 36 27 -3 8 8 SW 9 15 29.5 999 10 16.09344 0 0
8:53 pm 20:53 Clear 93 34 28 -2 10 10 SSW 10 17 29.53 1000 10 16.09344 0 0
9:53 pm 21:53 Clear 91 33 30 -1 11 11 S 10 17 29.56 1001 10 16.09344 0 0
10:53 pm 22:53 Clear 90 32 28 -2 11 11 SSW 10 17 29.56 1001 10 16.09344 0 0
11:53 pm 23:53 Clear 88 31 32 0 13 13 SW 13 20 29.56 1001 10 16.09344 0 0

Powered by AerisWeather